Wetterstats.de || Aktuelle Messwerte || Aktuelle Wetterkarten NEU! || Radar / Satellit NEU! || Wetterarchiv || Langzeitwerte NEU! || Klim. Kenntage || Met. Ereignisse || Agrarwerte || Echtzeitwerte

Monatsübersicht für November 2020 Diagramm
 
Wetter Information zur Wetteranzeige
Zeitraffer
Tageslänge (hh:mm)
Höchsttemperatur in °C
Uhrzeit
Tiefsttemperatur in °C
Uhrzeit
Luftfeuchte (max., in %)
Uhrzeit
Luftfeuchte (min., in %)
Uhrzeit
Luftdruck (max., in hPa)
Uhrzeit
Luftdruck (min., in hPa)
Uhrzeit
Luftdruck (Ø, in hPa)
Regenrate (max, mm/h)
Uhrzeit
Niederschlag in mm
Verdunstung in mm
Solar in W/m² (Ø)
Solar in W/m² (max.)
UV-Index (max.)
Sonnenscheindauer (hh:mm)
Windrichtung (Ø)
Windstärke (Ø in km/h)
Windstärke (Ø in bft)
Windböe (max., in km/h)
Uhrzeit
Windböe (max., in bft)
Uhrzeit
Taupunkt (max., in °C)
Uhrzeit
Taupunkt (min., in °C)
Uhrzeit
Windchill (min., in °C)
Uhrzeit
Gewitterindex (max.)
Uhrzeit
Waldbrandindex (max.)
Uhrzeit
Graslandfeuerindex (max.)
Uhrzeit
Staubsturm-Index (max.)
Uhrzeit
01
Zeitraffer
09:37
13.4
14:35 Uhr
9.3
07:10 Uhr

98
08:15 Uhr
94
14:40 Uhr
1018.8
00:05 Uhr

1012.3
21:55 Uhr
1015.4
2,400
10:35 Uhr
0,400
0.381
71
353
14:05 Uhr
0.8
11:10 Uhr

00:40:00
6,8
1
27,4
01:40 Uhr

4
12.6
14:35 Uhr
8.7
07:10 Uhr
8.8
01:40 Uhr
2
00:00 Uhr

00:00 Uhr

00:00 Uhr

00:00 Uhr
02
Zeitraffer
09:33
18.3
14:00 Uhr
13.0
00:00 Uhr

98
08:45 Uhr
90
22:55 Uhr
1013.0
23:35 Uhr

1010.5
14:40 Uhr
1011.4
2,400
02:55 Uhr
4,000
0.559
103
304
12:00 Uhr
1.2
11:55 Uhr

01:35:00
7,7
2
29,0
11:45 Uhr

4
17.0
14:00 Uhr
12.4
00:00 Uhr
11.0
00:40 Uhr
6
16:00 Uhr

00:00 Uhr

00:00 Uhr

00:00 Uhr
03
Zeitraffer
09:29
16.2
01:15 Uhr
9.2
17:50 Uhr

92
00:40 Uhr
71
13:50 Uhr
1024.0
23:25 Uhr

1013.2
00:00 Uhr
1020.9
0,000
00:00 Uhr
0,000
0.940
185
441
12:55 Uhr
1.1
10:40 Uhr

03:25:00
4,5
1
25,7
00:40 Uhr

4
14.7
01:15 Uhr
7.6
22:30 Uhr
9.2
17:50 Uhr
6
00:00 Uhr

00:00 Uhr

00:00 Uhr

00:00 Uhr
04
Zeitraffer
09:25
11.6
11:55 Uhr
4.2
21:25 Uhr

95
22:50 Uhr
71
11:55 Uhr
1035.4
23:30 Uhr

1023.8
00:10 Uhr
1029.7
0,000
00:00 Uhr
0,000
0.991
164
446
11:20 Uhr
1.2
11:10 Uhr

04:00:00
6,5
1
30,6
09:30 Uhr

5
8.0
00:45 Uhr
3.1
21:20 Uhr
3.5
23:05 Uhr
0
00:00 Uhr

00:00 Uhr

00:00 Uhr

00:00 Uhr
05
Zeitraffer
09:21
10.6
13:10 Uhr
2.3
07:25 Uhr

96
07:55 Uhr
79
13:35 Uhr
1037.6
10:30 Uhr

1035.3
00:00 Uhr
1036.3
2,400
03:55 Uhr
0,200
0.965
180
367
12:05 Uhr
1.1
11:25 Uhr

06:50:00
7,9
2
27,4
10:30 Uhr

4
7.7
12:50 Uhr
1.6
07:25 Uhr
-2.0
07:35 Uhr
0
00:00 Uhr

00:00 Uhr

00:00 Uhr

00:00 Uhr
06
Zeitraffer
09:19
10.2
13:40 Uhr
8.1
05:50 Uhr

93
08:00 Uhr
88
01:25 Uhr
1034.9
10:25 Uhr

1033.1
23:40 Uhr
1033.9
0,000
01:25 Uhr
0,000
0.432
53
113
09:15 Uhr
0.0
01:25 Uhr

00:00:00
5,7
1
25,7
04:40 Uhr

4
8.6
13:40 Uhr
6.4
01:25 Uhr
4.9
02:20 Uhr
0
01:25 Uhr

00:00 Uhr

00:00 Uhr

00:00 Uhr
07
Zeitraffer
09:15
11.9
13:40 Uhr
5.9
23:35 Uhr

97
22:00 Uhr
80
13:40 Uhr
1033.2
00:00 Uhr

1025.3
23:50 Uhr
1029.2
2,400
23:00 Uhr
0,200
0.762
161
318
10:35 Uhr
1.1
11:20 Uhr

04:55:00
5,9
1
20,9
09:10 Uhr

4
8.8
14:30 Uhr
5.4
23:40 Uhr
4.4
10:05 Uhr
0
00:00 Uhr

00:00 Uhr

00:00 Uhr

00:00 Uhr
08
Zeitraffer
09:11
5.9
00:00 Uhr
2.1
07:25 Uhr

98
09:30 Uhr
97
00:00 Uhr
1028.5
23:50 Uhr

1024.9
02:10 Uhr
1026.6
0,000
00:00 Uhr
0,000
0.279
80
192
10:30 Uhr
0.6
10:05 Uhr

00:05:00
4,0
1
16,1
20:25 Uhr

3
5.4
00:00 Uhr
1.7
07:20 Uhr
2.1
07:25 Uhr
0
00:00 Uhr

00:00 Uhr

00:00 Uhr

00:00 Uhr
09
Zeitraffer
09:08
6.1
13:15 Uhr
5.1
07:50 Uhr

97
00:00 Uhr
94
15:10 Uhr
1030.3
23:40 Uhr

1028.2
03:35 Uhr
1029.1
0,000
00:00 Uhr
0,000
0.152
34
81
11:35 Uhr
0.0
00:00 Uhr

00:00:00
8,0
2
27,4
22:25 Uhr

4
5.4
12:50 Uhr
4.4
22:15 Uhr
1.4
22:25 Uhr
0
00:00 Uhr

00:00 Uhr

00:00 Uhr

00:00 Uhr
10
Zeitraffer
09:04
5.6
01:00 Uhr
4.4
08:25 Uhr

96
01:20 Uhr
95
00:00 Uhr
1031.3
10:30 Uhr

1029.7
03:40 Uhr
1030.6
2,400
19:40 Uhr
0,200
0.127
23
42
11:45 Uhr
0.0
00:00 Uhr

00:00:00
7,7
2
24,1
02:30 Uhr

4
5.0
01:20 Uhr
3.7
08:25 Uhr
0.3
07:10 Uhr
0
00:00 Uhr

00:00 Uhr

00:00 Uhr

00:00 Uhr
11
Zeitraffer
09:01
5.9
13:00 Uhr
4.9
04:30 Uhr

96
00:00 Uhr
93
13:45 Uhr
1030.6
00:00 Uhr

1024.9
23:20 Uhr
1027.9
0,000
00:00 Uhr
0,000
0.127
26
69
12:30 Uhr
0.0
00:00 Uhr

00:00:00
5,6
1
17,7
13:05 Uhr

3
5.0
12:30 Uhr
4.2
05:30 Uhr
2.8
06:15 Uhr
0
00:00 Uhr

00:00 Uhr

00:00 Uhr

00:00 Uhr
12
Zeitraffer
08:58
8.8
14:30 Uhr
5.5
18:40 Uhr

95
02:00 Uhr
82
13:15 Uhr
1024.9
00:00 Uhr

1020.9
15:00 Uhr
1022.2
0,000
00:00 Uhr
0,000
0.330
55
176
14:25 Uhr
0.0
00:00 Uhr

00:30:00
6,0
1
27,4
13:10 Uhr

4
5.9
14:30 Uhr
3.5
18:30 Uhr
3.3
09:05 Uhr
0
00:00 Uhr

00:00 Uhr

00:00 Uhr

00:00 Uhr
13
Zeitraffer
08:54
11.4
14:15 Uhr
5.4
00:45 Uhr

96
08:30 Uhr
80
14:35 Uhr
1021.6
08:55 Uhr

1018.8
20:05 Uhr
1020.3
0,000
00:00 Uhr
0,000
0.559
124
376
10:30 Uhr
0.8
10:25 Uhr

03:25:00
5,7
1
22,5
14:20 Uhr

4
8.4
14:15 Uhr
3.8
00:40 Uhr
5.0
21:40 Uhr
0
00:00 Uhr

00:00 Uhr

00:00 Uhr

00:00 Uhr
14
Zeitraffer
08:51
14.1
11:05 Uhr
5.7
00:00 Uhr

95
02:15 Uhr
85
11:05 Uhr
1020.0
08:40 Uhr

1017.9
23:55 Uhr
1019.1
2,400
04:40 Uhr
0,200
0.533
108
364
11:00 Uhr
0.9
10:55 Uhr

01:05:00
5,1
1
25,7
11:20 Uhr

4
11.8
14:35 Uhr
4.5
00:00 Uhr
5.7
00:00 Uhr
0
00:00 Uhr

00:00 Uhr

00:00 Uhr

00:00 Uhr
15
Zeitraffer
08:47
14.9
12:15 Uhr
5.1
23:45 Uhr

96
07:15 Uhr
72
12:00 Uhr
1018.0
00:00 Uhr

1010.6
23:40 Uhr
1014.8
0,000
00:00 Uhr
0,000
0.940
152
346
12:00 Uhr
0.9
11:10 Uhr

05:55:00
7,6
2
30,6
18:15 Uhr

5
10.2
11:10 Uhr
3.9
23:45 Uhr
2.2
21:05 Uhr
0
00:00 Uhr

00:00 Uhr

00:00 Uhr

00:00 Uhr


 
Wetter Information zur Wetteranzeige
Zeitraffer
Tageslänge (hh:mm)
Höchsttemperatur in °C
Uhrzeit
Tiefsttemperatur in °C
Uhrzeit
Luftfeuchte (max., in %)
Uhrzeit
Luftfeuchte (min., in %)
Uhrzeit
Luftdruck (max., in hPa)
Uhrzeit
Luftdruck (min., in hPa)
Uhrzeit
Luftdruck (Ø, in hPa)
Regenrate (max, mm/h)
Uhrzeit
Niederschlag in mm
Verdunstung in mm
Solar in W/m² (Ø)
Solar in W/m² (max.)
UV-Index (max.)
Sonnenscheindauer (hh:mm)
Windrichtung (Ø)
Windstärke (Ø in km/h)
Windstärke (Ø in bft)
Windböe (max., in km/h)
Uhrzeit
Windböe (max., in bft)
Uhrzeit
Taupunkt (max., in °C)
Uhrzeit
Taupunkt (min., in °C)
Uhrzeit
Windchill (min., in °C)
Uhrzeit
Gewitterindex (max.)
Uhrzeit
Waldbrandindex (max.)
Uhrzeit
Graslandfeuerindex (max.)
Uhrzeit
Staubsturm-Index (max.)
Uhrzeit
16
Zeitraffer
08:45
12.1
13:50 Uhr
4.8
00:20 Uhr

96
09:45 Uhr
84
16:25 Uhr
1020.5
23:55 Uhr

1009.3
02:40 Uhr
1013.9
4,800
11:35 Uhr
3,000
0.533
79
367
12:50 Uhr
0.7
12:20 Uhr

01:50:00
7,3
2
29,0
13:55 Uhr

4
10.0
13:25 Uhr
3.7
00:25 Uhr
2.0
02:40 Uhr
0
00:00 Uhr

00:00 Uhr

00:00 Uhr

00:00 Uhr
17
Zeitraffer
08:42
11.4
13:30 Uhr
8.3
08:40 Uhr

96
18:40 Uhr
82
11:50 Uhr
1026.2
23:45 Uhr

1020.5
00:00 Uhr
1023.6
2,400
14:35 Uhr
1,600
0.533
91
352
11:35 Uhr
0.9
11:30 Uhr

01:20:00
8,6
2
29,0
13:40 Uhr

4
9.6
19:50 Uhr
7.1
08:40 Uhr
5.7
09:50 Uhr
0
00:00 Uhr

00:00 Uhr

00:00 Uhr

00:00 Uhr
18
Zeitraffer
08:38
12.4
11:55 Uhr
7.3
21:05 Uhr

95
00:00 Uhr
78
12:45 Uhr
1027.2
08:45 Uhr

1017.8
23:55 Uhr
1024.5
0,000
00:00 Uhr
0,000
0.533
77
278
12:00 Uhr
0.9
11:35 Uhr

00:55:00
7,1
2
33,8
23:00 Uhr

5
9.7
11:50 Uhr
5.8
21:05 Uhr
4.3
22:05 Uhr
0
00:00 Uhr

00:00 Uhr

00:00 Uhr

00:00 Uhr
19
Zeitraffer
08:35
11.2
13:45 Uhr
4.3
23:55 Uhr

90
09:35 Uhr
72
13:55 Uhr
1024.0
23:55 Uhr

1013.6
06:50 Uhr
1016.5
2,400
08:05 Uhr
1,200
0.762
57
272
13:30 Uhr
0.6
11:20 Uhr

00:30:00
10,8
2
38,6
13:40 Uhr

5
8.8
12:10 Uhr
1.8
23:45 Uhr
3.9
17:45 Uhr
0
00:00 Uhr

00:00 Uhr

00:00 Uhr

00:00 Uhr
20
Zeitraffer
08:33
6.4
13:05 Uhr
-0.5
23:00 Uhr

95
23:05 Uhr
77
12:55 Uhr
1035.3
23:00 Uhr

1024.0
00:05 Uhr
1030.0
2,400
15:05 Uhr
0,200
0.660
138
258
11:55 Uhr
0.8
11:25 Uhr

05:35:00
7,2
2
29,0
10:30 Uhr

4
3.1
11:50 Uhr
-1.3
22:25 Uhr
-2.4
07:10 Uhr
0
00:00 Uhr

00:00 Uhr

00:00 Uhr

00:00 Uhr
21
Zeitraffer
08:30
6.3
14:35 Uhr
-0.8
01:10 Uhr

96
04:40 Uhr
71
14:05 Uhr
1035.6
01:15 Uhr

1025.5
23:50 Uhr
1031.4
2,400
09:00 Uhr
0,200
0.762
118
385
11:25 Uhr
0.8
11:10 Uhr

04:30:00
9,7
2
40,2
15:45 Uhr

5
3.0
11:25 Uhr
-1.5
01:10 Uhr
-3.5
01:05 Uhr
0
00:00 Uhr

00:00 Uhr

00:00 Uhr

00:00 Uhr
22
Zeitraffer
08:27
9.0
14:30 Uhr
5.4
02:30 Uhr

92
19:45 Uhr
73
00:00 Uhr
1025.5
00:00 Uhr

1021.5
12:20 Uhr
1023.2
2,400
16:30 Uhr
0,400
0.635
76
155
12:15 Uhr
0.7
12:00 Uhr

00:35:00
11,2
2
45,1
08:25 Uhr

6
6.7
16:05 Uhr
1.2
00:00 Uhr
-1.6
09:30 Uhr
0
00:00 Uhr

00:00 Uhr

00:00 Uhr

00:00 Uhr
23
Zeitraffer
08:25
8.8
13:45 Uhr
3.8
23:55 Uhr

95
04:20 Uhr
78
13:25 Uhr
1029.4
23:35 Uhr

1022.4
04:00 Uhr
1025.1
2,400
06:20 Uhr
0,200
0.558
117
281
12:15 Uhr
0.7
11:10 Uhr

03:35:00
8,1
2
38,6
11:15 Uhr

5
5.2
12:20 Uhr
2.5
23:55 Uhr
0.1
08:55 Uhr
0
00:00 Uhr

00:00 Uhr

00:00 Uhr

00:00 Uhr
24
Zeitraffer
08:22
6.6
14:15 Uhr
-0.8
23:50 Uhr

94
08:45 Uhr
82
13:50 Uhr
1029.4
00:55 Uhr

1023.2
23:50 Uhr
1026.3
2,400
10:15 Uhr
0,200
0.508
117
285
11:10 Uhr
0.7
10:55 Uhr

04:25:00
6,2
1
30,6
11:10 Uhr

5
3.7
14:00 Uhr
-1.8
23:50 Uhr
-1.2
11:45 Uhr
0
00:00 Uhr

00:00 Uhr

00:00 Uhr

00:00 Uhr
25
Zeitraffer
08:20
4.8
13:25 Uhr
-2.6
07:40 Uhr

95
02:05 Uhr
78
13:40 Uhr
1023.2
00:00 Uhr

1020.3
14:40 Uhr
1021.3
0,000
00:00 Uhr
0,000
0.533
131
248
11:35 Uhr
0.7
11:05 Uhr

05:40:00
4,6
1
22,5
13:15 Uhr

4
1.6
13:25 Uhr
-3.4
07:40 Uhr
-2.6
07:40 Uhr
0
00:00 Uhr

00:00 Uhr

00:00 Uhr

00:00 Uhr
26
Zeitraffer
08:17
5.3
23:10 Uhr
-0.7
06:00 Uhr

95
23:25 Uhr
91
10:00 Uhr
1021.7
23:30 Uhr

1020.4
14:05 Uhr
1021.1
2,400
09:05 Uhr
0,800
0.178
38
105
09:30 Uhr
0.0
00:00 Uhr

00:10:00
7,7
2
24,1
11:20 Uhr

4
4.6
23:30 Uhr
-1.7
06:00 Uhr
-4.6
06:00 Uhr
0
00:00 Uhr

00:00 Uhr

00:00 Uhr

00:00 Uhr
27
Zeitraffer
08:14
5.9
09:40 Uhr
3.7
23:45 Uhr

96
03:20 Uhr
87
22:15 Uhr
1024.3
22:25 Uhr

1021.3
00:55 Uhr
1022.7
0,000
00:00 Uhr
0,000
0.127
45
132
13:00 Uhr
0.0
00:00 Uhr

00:00:00
2,9
1
16,1
01:40 Uhr

3
5.4
09:55 Uhr
1.8
23:35 Uhr
3.7
23:45 Uhr
0
00:00 Uhr

00:00 Uhr

00:00 Uhr

00:00 Uhr
28
Zeitraffer
08:12
5.6
11:55 Uhr
-0.4
19:05 Uhr

93
22:00 Uhr
77
11:55 Uhr
1027.1
21:25 Uhr

1023.7
05:40 Uhr
1025.2
0,000
00:00 Uhr
0,000
0.305
69
144
11:35 Uhr
0.6
11:00 Uhr

00:35:00
3,1
1
16,1
12:40 Uhr

3
2.6
13:55 Uhr
-2.7
19:00 Uhr
-0.4
19:05 Uhr
0
00:00 Uhr

00:00 Uhr

00:00 Uhr

00:00 Uhr
29
Zeitraffer
08:09
4.7
12:30 Uhr
2.1
23:05 Uhr

95
07:40 Uhr
87
15:15 Uhr
1026.7
00:00 Uhr

1025.0
15:10 Uhr
1025.8
2,400
04:20 Uhr
1,800
0.279
64
130
12:25 Uhr
0.0
00:00 Uhr

00:05:00
5,6
1
25,7
14:15 Uhr

4
3.3
11:15 Uhr
0.8
23:10 Uhr
-1.1
20:15 Uhr
0
00:00 Uhr

00:00 Uhr

00:00 Uhr

00:00 Uhr
30
Zeitraffer
08:07
2.1
00:00 Uhr
-1.0
06:40 Uhr

94
09:05 Uhr
86
23:20 Uhr
1026.8
09:40 Uhr

1017.9
23:45 Uhr
1024.2
2,400
00:25 Uhr
0,200
0.152
36
62
12:10 Uhr
0.0
00:00 Uhr

00:00:00
5,0
1
20,9
20:45 Uhr

4
0.9
00:00 Uhr
-2.2
05:35 Uhr
-3.6
20:55 Uhr
0
00:00 Uhr

00:00 Uhr

00:00 Uhr

00:00 Uhr
Stationsstandorte || Wetterblog || Wissenswertes || Downloads || Seitenhistorie || Partner || Impressum / Datenschutz